| time (UTC) | temp C | wind direction | speed KPH | gust KPH | rain 1hr cm | rain 24hr cm | rain mn cm | humidity % | barometer mb |
| 20260505084029 | 12 | 26 | 6.4 | 12.9 | 0.00 | 0.00 | 0.00 | 47 | 1009.4 |
| 20260505083526 | 12 | 357 | 8.0 | 12.9 | 0.00 | 0.00 | 0.00 | 47 | 1008.9 |
| 20260505083023 | 13 | 30 | 12.9 | 20.9 | 0.00 | 0.00 | 0.00 | 46 | 1008.7 |
| 20260505082518 | 13 | 19 | 9.7 | 22.5 | 0.00 | 0.00 | 0.00 | 46 | 1008.4 |
| 20260505082015 | 12 | 43 | 8.0 | 14.5 | 0.00 | 0.00 | 0.00 | 46 | 1008.4 |
| 20260505081512 | 12 | 345 | 8.0 | 20.9 | 0.00 | 0.00 | 0.00 | 46 | 1007.8 |
| 20260505081009 | 13 | 341 | 8.0 | 12.9 | 0.00 | 0.00 | 0.00 | 46 | 1008.0 |
| 20260505080505 | 13 | 7 | 11.3 | 16.1 | 0.00 | 0.00 | 0.00 | 45 | 1007.6 |
| 20260505080001 | 13 | 293 | 11.3 | 22.5 | 0.00 | 0.00 | 0.00 | 45 | 1007.7 |
| 20260505075458 | 13 | 316 | 11.3 | 20.9 | 0.00 | 0.00 | 0.00 | 45 | 1007.6 |
| 20260505074955 | 13 | 329 | 11.3 | 27.4 | 0.00 | 0.00 | 0.00 | 44 | 1007.3 |
| 20260505074452 | 13 | 13 | 14.5 | 25.7 | 0.00 | 0.00 | 0.00 | 44 | 1007.7 |
| 20260505073949 | 13 | 336 | 14.5 | 24.1 | 0.00 | 0.00 | 0.00 | 44 | 1007.8 |
| 20260505073447 | 13 | 9 | 11.3 | 32.2 | 0.00 | 0.00 | 0.00 | 43 | 1008.5 |
| 20260505072944 | 13 | 355 | 17.7 | 22.5 | 0.00 | 0.00 | 0.00 | 43 | 1008.9 |
| 20260505072440 | 13 | 9 | 12.9 | 25.7 | 0.00 | 0.00 | 0.00 | 42 | 1009.0 |
| 20260505071936 | 13 | 354 | 8.0 | 17.7 | 0.00 | 0.00 | 0.00 | 43 | 1008.9 |
| 20260505071432 | 13 | 7 | 12.9 | 20.9 | 0.00 | 0.00 | 0.00 | 43 | 1008.9 |
| 20260505070931 | 13 | 353 | 14.5 | 25.7 | 0.00 | 0.00 | 0.00 | 43 | 1009.1 |
| 20260505070427 | 13 | 0 | 17.7 | 20.9 | 0.00 | 0.00 | 0.00 | 44 | 1009.4 |
| 20260505065922 | 13 | 8 | 9.7 | 22.5 | 0.00 | 0.00 | 0.00 | 45 | 1009.0 |
| 20260505065419 | 14 | 9 | 8.0 | 16.1 | 0.00 | 0.00 | 0.00 | 44 | 1009.3 |
| 20260505064916 | 13 | 341 | 12.9 | 16.1 | 0.00 | 0.00 | 0.00 | 44 | 1009.1 |
| 20260505064413 | 14 | 350 | 4.8 | 17.7 | 0.00 | 0.00 | 0.00 | 45 | 1008.7 |
| 20260505063912 | 14 | 5 | 11.3 | 27.4 | 0.00 | 0.00 | 0.00 | 44 | 1008.9 |
| 20260505063407 | 14 | 357 | 8.0 | 16.1 | 0.00 | 0.00 | 0.00 | 44 | 1009.0 |
| 20260505062904 | 14 | 0 | 14.5 | 16.1 | 0.00 | 0.00 | 0.00 | 44 | 1009.1 |
| 20260505062401 | 14 | 32 | 9.7 | 12.9 | 0.00 | 0.00 | 0.00 | 45 | 1008.9 |
| 20260505061858 | 15 | 10 | 9.7 | 25.7 | 0.00 | 0.00 | 0.00 | 44 | 1008.4 |
| 20260505061357 | 15 | 342 | 22.5 | 32.2 | 0.00 | 0.00 | 0.00 | 43 | 1008.4 |
| 20260505060854 | 15 | 314 | 14.5 | 24.1 | 0.00 | 0.00 | 0.00 | 45 | 1007.7 |
| 20260505060350 | 15 | 354 | 11.3 | 20.9 | 0.00 | 0.00 | 0.00 | 47 | 1007.7 |
| 20260505055846 | 15 | 330 | 8.0 | 27.4 | 0.00 | 0.00 | 0.00 | 47 | 1007.4 |
| 20260505055342 | 15 | 350 | 14.5 | 17.7 | 0.00 | 0.00 | 0.00 | 44 | 1007.5 |
| 20260505054840 | 16 | 358 | 19.3 | 27.4 | 0.00 | 0.00 | 0.00 | 42 | 1007.2 |
| 20260505054337 | 16 | 346 | 11.3 | 27.4 | 0.00 | 0.00 | 0.00 | 42 | 1007.3 |
| 20260505053835 | 16 | 334 | 11.3 | 32.2 | 0.00 | 0.00 | 0.00 | 41 | 1007.1 |
| 20260505053332 | 16 | 340 | 12.9 | 29.0 | 0.00 | 0.00 | 0.00 | 42 | 1006.8 |
| 20260505052828 | 16 | 14 | 11.3 | 29.0 | 0.00 | 0.00 | 0.00 | 41 | 1006.6 |
| 20260505052325 | 17 | 346 | 22.5 | 35.4 | 0.00 | 0.00 | 0.00 | 40 | 1006.4 |
| 20260505051823 | 17 | 31 | 12.9 | 40.2 | 0.00 | 0.00 | 0.00 | 40 | 1006.5 |
| 20260505051320 | 17 | 358 | 20.9 | 27.4 | 0.00 | 0.00 | 0.00 | 40 | 1006.4 |
| 20260505050818 | 17 | 337 | 14.5 | 24.1 | 0.00 | 0.00 | 0.00 | 40 | 1005.8 |
| 20260505050317 | 17 | 4 | 17.7 | 32.2 | 0.00 | 0.00 | 0.00 | 39 | 1006.0 |
| 20260505041746 | 20 | 359 | 14.5 | 16.1 | 0.00 | 0.00 | 0.00 | 39 | 1005.6 |
| 20260505041243 | 20 | 2 | 11.3 | 22.5 | 0.00 | 0.00 | 0.00 | 39 | 1005.0 |
| 20260505040741 | 20 | 347 | 9.7 | 25.7 | 0.00 | 0.00 | 0.00 | 39 | 1005.1 |
| 20260505040238 | 20 | 24 | 8.0 | 14.5 | 0.00 | 0.00 | 0.00 | 40 | 1005.2 |
| 20260505035735 | 20 | 317 | 8.0 | 14.5 | 0.00 | 0.00 | 0.00 | 41 | 1005.3 |
| 20260505035230 | 20 | 333 | 9.7 | 12.9 | 0.00 | 0.00 | 0.00 | 41 | 1005.3 |
| 20260505034728 | 20 | 339 | 12.9 | 24.1 | 0.00 | 0.00 | 0.00 | 39 | 1005.4 |
| 20260505034224 | 20 | 352 | 8.0 | 9.7 | 0.00 | 0.00 | 0.00 | 41 | 1005.2 |
| 20260505033721 | 21 | 358 | 11.3 | 14.5 | 0.00 | 0.00 | 0.00 | 40 | 1005.3 |
| 20260505033219 | 21 | 28 | 9.7 | 17.7 | 0.00 | 0.00 | 0.00 | 40 | 1005.0 |
| 20260505032717 | 21 | 2 | 11.3 | 17.7 | 0.00 | 0.00 | 0.00 | 41 | 1004.8 |
| 20260505032212 | 21 | 324 | 16.1 | 22.5 | 0.00 | 0.00 | 0.00 | 41 | 1004.8 |
| 20260505031710 | 21 | 344 | 6.4 | 11.3 | 0.00 | 0.00 | 0.00 | 48 | 1004.5 |
| 20260505031206 | 21 | 288 | 3.2 | 11.3 | 0.00 | 0.00 | 0.00 | 48 | 1004.6 |
| 20260505030703 | 21 | 301 | 6.4 | 14.5 | 0.00 | 0.00 | 0.00 | 48 | 1004.3 |
| 20260505030159 | 21 | 349 | 11.3 | 14.5 | 0.00 | 0.00 | 0.00 | 50 | 1004.1 |
| 20260505025655 | 21 | 9 | 6.4 | 9.7 | 0.00 | 0.00 | 0.00 | 56 | 1004.0 |
| 20260505025154 | 20 | 308 | 9.7 | 11.3 | 0.00 | 0.00 | 0.00 | 60 | 1003.8 |
| 20260505024651 | 19 | 332 | 9.7 | 11.3 | 0.00 | 0.00 | 0.00 | 65 | 1003.9 |
| 20260505024148 | 17 | 264 | 3.2 | 9.7 | 0.00 | 0.00 | 0.00 | 77 | 1003.7 |
| 20260505023646 | 17 | 312 | 4.8 | 4.8 | 0.00 | 0.00 | 0.00 | 81 | 1003.3 |
| 20260505023143 | 17 | 264 | 0.0 | 0.0 | 0.00 | 0.00 | 0.00 | 79 | 1003.1 |
| 20260505022640 | 17 | 277 | 0.0 | 0.0 | 0.00 | 0.00 | 0.00 | 78 | 1003.1 |
| 20260505022137 | 18 | 248 | 0.0 | 0.0 | 0.00 | 0.00 | 0.00 | 77 | 1002.8 |
| 20260505021634 | 18 | 284 | 0.0 | 0.0 | 0.00 | 0.00 | 0.00 | 77 | 1003.0 |
| 20260505021130 | 18 | 276 | 0.0 | 0.0 | 0.00 | 0.00 | 0.00 | 79 | 1002.9 |
| 20260505020626 | 18 | 250 | 0.0 | 0.0 | 0.00 | 0.00 | 0.00 | 78 | 1002.9 |
| 20260505020122 | 18 | 249 | 0.0 | 0.0 | 0.00 | 0.00 | 0.00 | 80 | 1002.9 |
| 20260505015619 | 18 | 259 | 0.0 | 0.0 | 0.00 | 0.00 | 0.00 | 75 | 1002.6 |
| 20260505015116 | 18 | 279 | 0.0 | 0.0 | 0.00 | 0.00 | 0.00 | 77 | 1002.6 |
| 20260505014613 | 18 | 306 | 0.0 | 0.0 | 0.00 | 0.00 | 0.00 | 76 | 1002.6 |
| 20260505014110 | 20 | 301 | 0.0 | 0.0 | 0.00 | 0.00 | 0.00 | 72 | 1002.4 |
| 20260505013607 | 20 | 250 | 0.0 | 0.0 | 0.00 | 0.00 | 0.00 | 66 | 1002.3 |
| 20260505013104 | 20 | 247 | 0.0 | 0.0 | 0.00 | 0.00 | 0.00 | 70 | 1002.3 |
| 20260505012602 | 20 | 247 | 0.0 | 0.0 | 0.00 | 0.00 | 0.00 | 72 | 1001.9 |
| 20260505012059 | 21 | 258 | 0.0 | 0.0 | 0.00 | 0.00 | 0.00 | 67 | 1002.1 |
| 20260505011554 | 21 | 259 | 0.0 | 0.0 | 0.00 | 0.00 | 0.00 | 61 | 1002.2 |
| 20260505011052 | 22 | 259 | 0.0 | 1.6 | 0.00 | 0.00 | 0.00 | 59 | 1002.1 |
| 20260505010547 | 23 | 247 | 0.0 | 1.6 | 0.00 | 0.00 | 0.00 | 56 | 1001.9 |
| 20260505010044 | 23 | 254 | 0.0 | 0.0 | 0.00 | 0.00 | 0.00 | 55 | 1002.0 |
| 20260505005540 | 23 | 250 | 0.0 | 1.6 | 0.00 | 0.00 | 0.00 | 54 | 1002.0 |
| 20260505005038 | 24 | 239 | 0.0 | 0.0 | 0.00 | 0.00 | 0.00 | 53 | 1002.0 |
| 20260505004535 | 24 | 239 | 0.0 | 0.0 | 0.00 | 0.00 | 0.00 | 52 | 1002.0 |
| 20260505004032 | 25 | 239 | 0.0 | 0.0 | 0.00 | 0.00 | 0.00 | 51 | 1002.1 |
| 20260505003529 | 25 | 239 | 0.0 | 3.2 | 0.00 | 0.00 | 0.00 | 51 | 1001.9 |
| 20260505003026 | 25 | 228 | 1.6 | 3.2 | 0.00 | 0.00 | 0.00 | 51 | 1001.8 |
| 20260505002521 | 25 | 233 | 0.0 | 1.6 | 0.00 | 0.00 | 0.00 | 49 | 1002.1 |
| 20260505002020 | 25 | 184 | 3.2 | 3.2 | 0.00 | 0.00 | 0.00 | 48 | 1001.9 |
| 20260505001517 | 25 | 245 | 1.6 | 1.6 | 0.00 | 0.00 | 0.00 | 48 | 1002.0 |
| 20260505001014 | 25 | 165 | 3.2 | 3.2 | 0.00 | 0.00 | 0.00 | 48 | 1001.9 |
| 20260505000512 | 25 | 166 | 3.2 | 4.8 | 0.00 | 0.00 | 0.00 | 47 | 1001.9 |
| 20260505000009 | 25 | 118 | 4.8 | 4.8 | 0.00 | 0.00 | 0.00 | 47 | 1002.0 |
| 20260504235506 | 26 | 187 | 4.8 | 4.8 | 0.00 | 0.00 | 0.00 | 45 | 1002.2 |
| 20260504235002 | 26 | 163 | 4.8 | 8.0 | 0.00 | 0.00 | 0.00 | 45 | 1002.0 |
| 20260504234459 | 26 | 181 | 4.8 | 8.0 | 0.00 | 0.00 | 0.00 | 44 | 1001.6 |
| 20260504233956 | 26 | 154 | 6.4 | 8.0 | 0.00 | 0.00 | 0.00 | 43 | 1001.9 |
| 20260504233451 | 26 | 181 | 6.4 | 11.3 | 0.00 | 0.00 | 0.00 | 43 | 1001.8 |
| 20260504232949 | 26 | 218 | 1.6 | 9.7 | 0.00 | 0.00 | 0.00 | 45 | 1001.8 |
| 20260504232446 | 26 | 135 | 11.3 | 12.9 | 0.00 | 0.00 | 0.00 | 44 | 1002.1 |
| 20260504231943 | 26 | 166 | 6.4 | 9.7 | 0.00 | 0.00 | 0.00 | 45 | 1001.9 |
| 20260504231439 | 26 | 164 | 4.8 | 4.8 | 0.00 | 0.00 | 0.00 | 44 | 1001.8 |
| 20260504230935 | 26 | 177 | 4.8 | 8.0 | 0.00 | 0.00 | 0.00 | 43 | 1002.0 |
| 20260504230432 | 26 | 174 | 4.8 | 8.0 | 0.00 | 0.00 | 0.00 | 42 | 1001.9 |
| 20260504225932 | 26 | 130 | 4.8 | 4.8 | 0.00 | 0.00 | 0.00 | 42 | 1001.8 |
| 20260504225428 | 26 | 170 | 6.4 | 9.7 | 0.00 | 0.00 | 0.00 | 43 | 1001.9 |
| 20260504224925 | 27 | 137 | 4.8 | 8.0 | 0.00 | 0.00 | 0.00 | 41 | 1001.7 |
| 20260504224421 | 27 | 143 | 6.4 | 11.3 | 0.00 | 0.00 | 0.00 | 40 | 1001.8 |
| 20260504223919 | 27 | 170 | 6.4 | 8.0 | 0.00 | 0.00 | 0.00 | 41 | 1001.8 |
| 20260504223414 | 27 | 164 | 9.7 | 12.9 | 0.00 | 0.00 | 0.00 | 40 | 1001.9 |
| 20260504222910 | 27 | 185 | 11.3 | 12.9 | 0.00 | 0.00 | 0.00 | 39 | 1001.6 |
| 20260504222407 | 27 | 146 | 11.3 | 14.5 | 0.00 | 0.00 | 0.00 | 38 | 1001.7 |
| 20260504221906 | 27 | 181 | 11.3 | 14.5 | 0.00 | 0.00 | 0.00 | 39 | 1001.9 |
| 20260504221402 | 28 | 161 | 8.0 | 12.9 | 0.00 | 0.00 | 0.00 | 38 | 1001.8 |
| 20260504220859 | 28 | 182 | 8.0 | 12.9 | 0.00 | 0.00 | 0.00 | 39 | 1001.9 |
| 20260504220356 | 28 | 162 | 8.0 | 16.1 | 0.00 | 0.00 | 0.00 | 41 | 1001.9 |
| 20260504215853 | 28 | 121 | 8.0 | 17.7 | 0.00 | 0.00 | 0.00 | 41 | 1001.9 |
| 20260504215349 | 28 | 134 | 9.7 | 12.9 | 0.00 | 0.00 | 0.00 | 39 | 1002.0 |
| 20260504214846 | 27 | 139 | 4.8 | 11.3 | 0.00 | 0.00 | 0.00 | 41 | 1002.2 |
| 20260504214343 | 27 | 170 | 4.8 | 12.9 | 0.00 | 0.00 | 0.00 | 41 | 1002.1 |
| 20260504213840 | 27 | 169 | 9.7 | 12.9 | 0.00 | 0.00 | 0.00 | 42 | 1002.1 |
| 20260504213335 | 27 | 154 | 12.9 | 14.5 | 0.00 | 0.00 | 0.00 | 42 | 1002.3 |
| 20260504212833 | 27 | 241 | 4.8 | 11.3 | 0.00 | 0.00 | 0.00 | 42 | 1002.0 |
| 20260504212329 | 27 | 161 | 8.0 | 11.3 | 0.00 | 0.00 | 0.00 | 42 | 1002.1 |
| 20260504211827 | 27 | 168 | 6.4 | 11.3 | 0.00 | 0.00 | 0.00 | 43 | 1002.2 |
| 20260504211322 | 27 | 132 | 9.7 | 11.3 | 0.00 | 0.00 | 0.00 | 41 | 1002.2 |
| 20260504210820 | 27 | 166 | 4.8 | 9.7 | 0.00 | 0.00 | 0.00 | 43 | 1002.4 |
| 20260504210317 | 27 | 181 | 8.0 | 12.9 | 0.00 | 0.00 | 0.00 | 41 | 1002.3 |
| 20260504205814 | 27 | 158 | 8.0 | 12.9 | 0.00 | 0.00 | 0.00 | 43 | 1002.2 |
| 20260504205312 | 27 | 140 | 6.4 | 9.7 | 0.00 | 0.00 | 0.00 | 40 | 1002.3 |
| 20260504204810 | 27 | 171 | 12.9 | 14.5 | 0.00 | 0.00 | 0.00 | 39 | 1002.5 |
| 20260504204308 | 27 | 188 | 6.4 | 12.9 | 0.00 | 0.00 | 0.00 | 41 | 1002.5 |
| 20260504203807 | 27 | 204 | 6.4 | 9.7 | 0.00 | 0.00 | 0.00 | 40 | 1002.4 |
| 20260504203304 | 27 | 218 | 8.0 | 9.7 | 0.00 | 0.00 | 0.00 | 41 | 1002.6 |
| 20260504202758 | 27 | 152 | 8.0 | 12.9 | 0.00 | 0.00 | 0.00 | 39 | 1002.4 |
| 20260504202256 | 27 | 205 | 4.8 | 8.0 | 0.00 | 0.00 | 0.00 | 43 | 1002.7 |
| 20260504201753 | 27 | 229 | 3.2 | 4.8 | 0.00 | 0.00 | 0.00 | 42 | 1002.8 |
| 20260504201250 | 27 | 202 | 4.8 | 11.3 | 0.00 | 0.00 | 0.00 | 42 | 1002.5 |
| 20260504200748 | 27 | 195 | 14.5 | 16.1 | 0.00 | 0.00 | 0.00 | 40 | 1002.8 |
| 20260504200243 | 27 | 200 | 9.7 | 17.7 | 0.00 | 0.00 | 0.00 | 41 | 1002.6 |
| 20260504195740 | 27 | 141 | 11.3 | 14.5 | 0.00 | 0.00 | 0.00 | 40 | 1002.8 |
| 20260504195236 | 27 | 176 | 11.3 | 16.1 | 0.00 | 0.00 | 0.00 | 38 | 1002.8 |
| 20260504194733 | 27 | 144 | 6.4 | 8.0 | 0.00 | 0.00 | 0.00 | 39 | 1002.9 |
| 20260504194229 | 27 | 257 | 9.7 | 11.3 | 0.00 | 0.00 | 0.00 | 39 | 1002.7 |
| 20260504193726 | 28 | 110 | 12.9 | 14.5 | 0.00 | 0.00 | 0.00 | 39 | 1002.8 |
| 20260504193223 | 28 | 223 | 3.2 | 9.7 | 0.00 | 0.00 | 0.00 | 39 | 1002.8 |
| 20260504192722 | 27 | 167 | 8.0 | 12.9 | 0.00 | 0.00 | 0.00 | 40 | 1002.8 |
| 20260504192219 | 27 | 255 | 4.8 | 9.7 | 0.00 | 0.00 | 0.00 | 35 | 1002.8 |
| 20260504191718 | 27 | 230 | 8.0 | 11.3 | 0.00 | 0.00 | 0.00 | 36 | 1002.9 |
| 20260504191214 | 27 | 251 | 9.7 | 12.9 | 0.00 | 0.00 | 0.00 | 38 | 1002.8 |
| 20260504190709 | 27 | 124 | 8.0 | 12.9 | 0.00 | 0.00 | 0.00 | 38 | 1002.8 |
| 20260504190206 | 28 | 158 | 3.2 | 8.0 | 0.00 | 0.00 | 0.00 | 41 | 1002.8 |
| 20260504185703 | 27 | 236 | 3.2 | 8.0 | 0.00 | 0.00 | 0.00 | 42 | 1002.8 |
| 20260504185159 | 27 | 165 | 4.8 | 11.3 | 0.00 | 0.00 | 0.00 | 42 | 1002.7 |
| 20260504184655 | 27 | 208 | 4.8 | 12.9 | 0.00 | 0.00 | 0.00 | 38 | 1003.0 |
| 20260504184151 | 27 | 154 | 9.7 | 11.3 | 0.00 | 0.00 | 0.00 | 40 | 1002.9 |
| 20260504183648 | 27 | 158 | 6.4 | 11.3 | 0.00 | 0.00 | 0.00 | 42 | 1002.8 |
| 20260504183145 | 27 | 116 | 4.8 | 12.9 | 0.00 | 0.00 | 0.00 | 45 | 1002.7 |
| 20260504182643 | 27 | 136 | 11.3 | 14.5 | 0.00 | 0.00 | 0.00 | 42 | 1002.8 |
| 20260504182140 | 27 | 218 | 6.4 | 11.3 | 0.00 | 0.00 | 0.00 | 41 | 1003.1 |
| 20260504181637 | 26 | 234 | 8.0 | 9.7 | 0.00 | 0.00 | 0.00 | 43 | 1003.0 |
| 20260504181135 | 26 | 133 | 11.3 | 12.9 | 0.00 | 0.00 | 0.00 | 42 | 1002.9 |
| 20260504180634 | 26 | 187 | 8.0 | 11.3 | 0.00 | 0.00 | 0.00 | 44 | 1003.1 |
| 20260504180132 | 26 | 160 | 6.4 | 12.9 | 0.00 | 0.00 | 0.00 | 42 | 1003.1 |
| 20260504175629 | 26 | 161 | 8.0 | 16.1 | 0.00 | 0.00 | 0.00 | 42 | 1003.1 |
| 20260504175125 | 26 | 180 | 6.4 | 8.0 | 0.00 | 0.00 | 0.00 | 43 | 1003.2 |
| 20260504174624 | 26 | 171 | 11.3 | 12.9 | 0.00 | 0.00 | 0.00 | 41 | 1003.3 |
| 20260504174120 | 26 | 215 | 12.9 | 16.1 | 0.00 | 0.00 | 0.00 | 41 | 1003.2 |
| 20260504173617 | 25 | 215 | 4.8 | 14.5 | 0.00 | 0.00 | 0.00 | 43 | 1003.3 |
| 20260504173115 | 25 | 204 | 8.0 | 12.9 | 0.00 | 0.00 | 0.00 | 43 | 1003.3 |
| 20260504172611 | 25 | 195 | 8.0 | 14.5 | 0.00 | 0.00 | 0.00 | 43 | 1003.3 |
| 20260504172108 | 25 | 202 | 1.6 | 12.9 | 0.00 | 0.00 | 0.00 | 46 | 1003.4 |
| 20260504171604 | 25 | 168 | 9.7 | 17.7 | 0.00 | 0.00 | 0.00 | 45 | 1003.4 |
| 20260504171101 | 25 | 219 | 4.8 | 11.3 | 0.00 | 0.00 | 0.00 | 46 | 1003.3 |
| 20260504170557 | 25 | 175 | 6.4 | 14.5 | 0.00 | 0.00 | 0.00 | 49 | 1003.5 |
| 20260504150941 | 22 | 222 | 11.3 | 12.9 | 0.00 | 0.00 | 0.00 | 51 | 1003.5 |
| 20260504150438 | 22 | 216 | 3.2 | 11.3 | 0.00 | 0.00 | 0.00 | 53 | 1003.5 |
| 20260504140904 | 20 | 229 | 12.9 | 16.1 | 0.00 | 0.00 | 0.00 | 56 | 1003.8 |
| 20260504140400 | 20 | 183 | 11.3 | 14.5 | 0.00 | 0.00 | 0.00 | 57 | 1004.0 |
| 20260504130325 | 17 | 150 | 0.0 | 9.7 | 0.00 | 0.00 | 0.00 | 62 | 1003.6 |
| 20260504120248 | 15 | 171 | 3.2 | 8.0 | 0.00 | 0.00 | 0.00 | 68 | 1003.7 |
| 20260504110716 | 14 | 152 | 4.8 | 11.3 | 0.00 | 0.00 | 0.00 | 70 | 1003.6 |
| 20260504110212 | 13 | 143 | 8.0 | 9.7 | 0.00 | 0.00 | 0.00 | 70 | 1003.6 |
| 20260504100131 | 11 | 254 | 0.0 | 0.0 | 0.00 | 0.00 | 0.00 | 87 | 1004.4 |